Location: �quirre
(50.4736°N, 2.2351°E)
Time: 09:23:37
(UTC+00:00)

Nadezhda 4 Rocket - Pass Details

Date: 07 August 2020
Orbit: 949 x 993 km, 82.9° (Epoch: 20 September)

Event Time Altitude Azimuth Distance (km) Brightness Sun altitude
Rises 00:24:04 0° 350° (N) 3,717 8.3 -22.9°
Reaches altitude 10° 00:26:37 10° 352° (N) 2,760 7.4 -22.9°
Maximum altitude 00:32:58 78° 79° (E) 1,008 4.0 -22.7°
Enters shadow 00:35:21 41° 159° (SSE) 1,397 4.4 -22.7°
